EW7082 Weather Reports


Display with metric or nautical units.
time (UTC)temp
F
wind
direction
speed
MPH
gust
MPH
rain 1hr
in
rain 24hr
in
rain mn
in
humidity
%
barometer
mb
20260901034205 59 282 2.0 3.0 0.00 0.00 0.00 83 1009.5
20260901033704 59 293 2.0 3.0 0.00 0.00 0.00 83 1009.4
20260901033205 59 264 3.0 6.0 0.00 0.00 0.00 83 1009.4
20260901032704 59 266 2.0 6.0 0.00 0.00 0.00 83 1009.4
20260901031706 59 281 3.0 7.0 0.00 0.00 0.00 82 1009.4
20260901031204 59 283 3.0 7.0 0.00 0.00 0.00 82 1009.4
20260901030704 60 264 3.0 7.0 0.00 0.00 0.00 81 1009.4
20260901025204 61 265 4.0 7.0 0.00 0.00 0.00 79 1009.4
20260901024705 61 260 5.0 9.0 0.00 0.00 0.00 77 1009.4
20260901024204 62 284 4.0 7.0 0.00 0.00 0.00 76 1009.4
20260901023704 63 283 6.0 10.0 0.00 0.00 0.00 73 1009.4
20260901022704 69 297 6.0 10.0 0.00 0.00 0.00 65 1009.3
20260901021705 71 294 2.0 3.0 0.00 0.00 0.00 63 1009.3
20260901020704 71 296 1.0 2.0 0.00 0.00 0.00 63 1009.4
20260901020205 71 296 1.0 3.0 0.00 0.00 0.00 63 1009.4
20260901015705 70 296 1.0 2.0 0.00 0.00 0.00 64 1009.4
20260901015203 70 296 1.0 2.0 0.00 0.00 0.00 64 1009.4
20260901014704 69 296 1.0 1.0 0.00 0.00 0.00 65 1009.5
20260901012704 69 304 1.0 3.0 0.00 0.00 0.00 63 1009.5
20260901012205 69 293 2.0 3.0 0.00 0.00 0.00 64 1009.5
20260901011205 69 300 1.0 3.0 0.00 0.00 0.00 65 1009.7
20260901010705 69 288 1.0 3.0 0.00 0.00 0.00 65 1009.7
20260901010205 70 314 1.0 3.0 0.00 0.00 0.00 64 1009.7
20260901005704 69 308 1.0 2.0 0.00 0.00 0.00 65 1009.7
20260901005204 69 328 1.0 2.0 0.00 0.00 0.00 65 1009.7
20260901004705 69 281 1.0 3.0 0.00 0.00 0.00 64 1009.8
20260901004204 69 321 1.0 3.0 0.00 0.00 0.00 64 1009.8
20260901003704 70 5 2.0 3.0 0.00 0.00 0.00 63 1009.8
20260901003204 70 329 2.0 3.0 0.00 0.00 0.00 63 1009.9
20260901002705 70 312 1.0 3.0 0.00 0.00 0.00 64 1010.0
20260901001706 70 342 2.0 3.0 0.00 0.00 0.00 64 1010.1
20260901001205 70 277 1.0 3.0 0.00 0.00 0.00 64 1010.1
20260901000704 70 304 2.0 3.0 0.00 0.00 0.00 64 1010.1
20260901000204 70 292 2.0 3.0 0.00 0.00 0.00 63 1010.1
20260831235704 70 285 2.0 3.0 0.00 0.00 0.00 62 1010.2
20260831235205 70 317 1.0 3.0 0.00 0.00 0.00 64 1010.2
20260831234705 70 289 1.0 3.0 0.00 0.00 0.00 63 1010.4
20260831234205 70 329 2.0 3.0 0.00 0.00 0.00 62 1010.4
20260831233704 71 323 3.0 9.0 0.00 0.00 0.00 62 1010.4
20260831233205 71 350 3.0 8.0 0.00 0.00 0.00 62 1010.4
20260831232205 71 23 4.0 5.0 0.00 0.00 0.00 62 1010.4
20260831231705 71 304 3.0 8.0 0.00 0.00 0.00 63 1010.6
20260831231206 71 287 2.0 7.0 0.00 0.00 0.00 64 1010.6
20260831230704 70 13 2.0 5.0 0.00 0.00 0.00 64 1010.7
20260831230205 70 300 3.0 8.0 0.00 0.00 0.00 65 1010.8
20260831225705 70 345 3.0 6.0 0.00 0.00 0.00 66 1010.8
20260831225203 69 325 3.0 5.0 0.00 0.00 0.00 66 1010.9
20260831224705 69 340 2.0 5.0 0.00 0.00 0.00 67 1011.2
20260831223704 69 343 3.0 5.0 0.00 0.00 0.00 65 1011.1
20260831223205 70 334 3.0 5.0 0.00 0.00 0.00 64 1011.3
20260831222704 70 329 5.0 10.0 0.00 0.00 0.00 64 1011.3
20260831222204 70 328 3.0 6.0 0.00 0.00 0.00 65 1011.3
20260831221705 70 310 3.0 8.0 0.00 0.00 0.00 66 1011.3
20260831220705 70 26 5.0 8.0 0.00 0.00 0.00 65 1011.4
20260831214204 70 302 7.0 12.0 0.00 0.00 0.00 66 1011.8
20260831213704 69 318 5.0 9.0 0.00 0.00 0.00 66 1012.0
20260831213206 69 95 2.0 8.0 0.00 0.00 0.00 67 1012.0
20260831212704 69 334 3.0 8.0 0.00 0.00 0.00 67 1012.1
20260831212204 69 30 4.0 8.0 0.00 0.00 0.00 68 1012.1
20260831211705 68 7 3.0 10.0 0.00 0.00 0.00 68 1012.2
20260831210205 68 308 6.0 12.0 0.00 0.00 0.00 67 1012.3
20260831205704 69 23 6.0 10.0 0.00 0.00 0.00 68 1012.4
20260831205204 68 316 4.0 10.0 0.00 0.00 0.00 69 1012.4
20260831204204 69 331 6.0 12.0 0.00 0.00 0.00 68 1012.5
20260831203705 69 55 3.0 8.0 0.00 0.00 0.00 69 1012.5
20260831203206 68 64 4.0 9.0 0.00 0.00 0.00 70 1012.6
20260831202704 68 39 5.0 8.0 0.00 0.00 0.00 69 1012.6
20260831202205 68 49 6.0 9.0 0.00 0.00 0.00 69 1012.6
20260831201704 68 43 5.0 10.0 0.00 0.00 0.00 69 1012.7
20260831201204 68 55 6.0 9.0 0.00 0.00 0.00 69 1012.8
20260831200705 68 38 5.0 9.0 0.00 0.00 0.00 70 1012.9
20260831200205 68 60 5.0 8.0 0.00 0.00 0.00 69 1012.9
20260831195705 68 41 6.0 9.0 0.00 0.00 0.00 69 1013.0
20260831195204 67 22 4.0 9.0 0.00 0.00 0.00 70 1013.0
20260831194705 67 67 5.0 10.0 0.00 0.00 0.00 69 1013.1
20260831194205 68 52 6.0 10.0 0.00 0.00 0.00 69 1013.1
20260831193704 68 25 5.0 9.0 0.00 0.00 0.00 68 1013.2
20260831192704 68 11 3.0 8.0 0.00 0.00 0.00 69 1013.2
20260831192204 67 41 6.0 12.0 0.00 0.00 0.00 69 1013.4
20260831191705 67 13 6.0 10.0 0.00 0.00 0.00 69 1013.4
20260831191204 68 49 2.0 10.0 0.00 0.00 0.00 69 1013.5
20260831190704 67 45 4.0 9.0 0.00 0.00 0.00 71 1013.6
20260831190205 67 65 4.0 9.0 0.00 0.00 0.00 71 1013.6
20260831185204 67 342 5.0 8.0 0.00 0.00 0.00 72 1013.8
20260831184705 67 23 4.0 8.0 0.00 0.00 0.00 73 1013.7
20260831184206 66 70 2.0 8.0 0.00 0.00 0.00 75 1013.8
20260831183704 66 324 5.0 9.0 0.00 0.00 0.00 74 1013.8
20260831183205 66 17 3.0 7.0 0.00 0.00 0.00 75 1013.9
20260831182704 66 311 5.0 8.0 0.00 0.00 0.00 76 1014.0
20260831181704 66 8 5.0 8.0 0.00 0.00 0.00 76 1014.0
20260831181205 66 7 5.0 9.0 0.00 0.00 0.00 76 1014.0
20260831180206 66 336 3.0 8.0 0.00 0.00 0.00 75 1014.1
20260831175704 66 307 3.0 8.0 0.00 0.00 0.00 75 1014.2
20260831175205 66 37 2.0 5.0 0.00 0.00 0.00 76 1014.2
20260831174705 66 336 3.0 6.0 0.00 0.00 0.00 76 1014.3
20260831174204 65 340 3.0 7.0 0.00 0.00 0.00 76 1014.3
20260831173205 65 17 3.0 8.0 0.00 0.00 0.00 77 1014.3
20260831172704 65 8 5.0 8.0 0.00 0.00 0.00 77 1014.3
20260831172204 65 28 5.0 8.0 0.00 0.00 0.00 77 1014.4
20260831171704 65 13 4.0 8.0 0.00 0.00 0.00 78 1014.4
20260831171204 65 318 3.0 5.0 0.00 0.00 0.00 78 1014.5
20260831170704 64 16 4.0 7.0 0.00 0.00 0.00 77 1014.5
20260831170205 64 52 3.0 7.0 0.00 0.00 0.00 79 1014.5
20260831165704 64 322 2.0 3.0 0.00 0.00 0.00 81 1014.5
20260831165204 64 335 4.0 7.0 0.00 0.00 0.00 82 1014.5
20260831164706 63 316 1.0 3.0 0.00 0.00 0.00 82 1014.6
20260831163705 63 338 3.0 5.0 0.00 0.00 0.00 84 1014.7
20260831163205 63 2 2.0 7.0 0.00 0.00 0.00 84 1014.7
20260831162705 62 326 1.0 3.0 0.00 0.00 0.00 86 1014.7
20260831161705 62 324 2.0 5.0 0.00 0.00 0.00 88 1014.8
20260831160705 61 300 1.0 3.0 0.00 0.00 0.00 91 1014.8
20260831160204 60 288 3.0 7.0 0.00 0.00 0.00 91 1014.7
20260831155705 60 301 3.0 5.0 0.00 0.00 0.00 93 1014.8
20260831155205 59 323 1.0 3.0 0.00 0.00 0.00 94 1014.9
20260831154704 59 355 1.0 3.0 0.00 0.00 0.00 95 1014.9
20260831154204 58 291 1.0 3.0 0.00 0.00 0.00 96 1014.9
20260831153704 58 313 1.0 3.0 0.00 0.00 0.00 97 1015.0
20260831153205 58 302 0.0 2.0 0.00 0.00 0.00 97 1015.0
20260831152704 57 240 0.0 1.0 0.00 0.00 0.00 97 1015.0
20260831152204 57 240 0.0 1.0 0.00 0.00 0.00 98 1015.0
20260831151705 57 240 0.0 0.0 0.00 0.00 0.00 98 1015.0
20260831151204 56 240 0.0 0.0 0.00 0.00 0.00 98 1015.0
20260831150704 56 240 0.0 0.0 0.00 0.00 0.00 98 1015.0
20260831150204 55 240 0.0 0.0 0.00 0.00 0.00 98 1015.0
20260831145704 54 240 0.0 0.0 0.00 0.00 0.00 98 1014.9
20260831145205 54 240 0.0 0.0 0.00 0.00 0.00 98 1015.0
20260831144705 53 240 0.0 0.0 0.00 0.00 0.00 98 1015.0
20260831144204 53 240 0.0 0.0 0.00 0.00 0.00 97 1015.0
20260831143704 52 240 0.0 0.0 0.00 0.00 0.00 97 1015.0
20260831143205 52 240 0.0 0.0 0.00 0.00 0.00 98 1015.1
20260831142704 51 240 0.0 0.0 0.00 0.00 0.00 97 1015.1
20260831141705 50 240 0.0 0.0 0.00 0.00 0.00 97 1015.1
20260831141204 50 240 0.0 0.0 0.00 0.00 0.00 97 1015.0
20260831140704 49 240 0.0 0.0 0.00 0.00 0.00 97 1015.0
20260831140204 49 240 0.0 0.0 0.00 0.00 0.00 96 1015.0
20260831135203 49 240 0.0 0.0 0.00 0.00 0.00 97 1015.0
20260831134706 49 240 0.0 0.0 0.00 0.00 0.00 96 1015.0
20260831133704 49 240 0.0 0.0 0.00 0.00 0.00 97 1015.0
20260831133205 49 240 0.0 0.0 0.00 0.00 0.00 96 1015.0
20260831132204 49 240 0.0 0.0 0.00 0.00 0.00 96 1015.2
20260831131704 49 240 0.0 0.0 0.00 0.00 0.00 96 1015.2
20260831131205 49 240 0.0 0.0 0.00 0.00 0.00 96 1015.3
20260831130703 49 240 0.0 0.0 0.00 0.00 0.00 96 1015.4
20260831130204 49 240 0.0 0.0 0.00 0.00 0.00 96 1015.4
20260831125203 49 240 0.0 0.0 0.00 0.00 0.00 96 1015.4
20260831124706 50 240 0.0 0.0 0.00 0.00 0.00 96 1015.4
20260831124205 50 240 0.0 0.0 0.00 0.00 0.00 96 1015.4
20260831123205 50 240 0.0 1.0 0.00 0.00 0.00 96 1015.4
20260831122203 50 240 0.0 1.0 0.00 0.00 0.00 96 1015.4
20260831121704 50 240 0.0 0.0 0.00 0.00 0.00 96 1015.4
20260831121204 50 240 0.0 1.0 0.00 0.00 0.00 96 1015.5
20260831120705 49 240 0.0 2.0 0.00 0.00 0.00 96 1015.6
20260831120205 50 240 0.0 1.0 0.00 0.00 0.00 96 1015.6
20260831115704 50 240 0.0 2.0 0.00 0.00 0.00 96 1015.7
20260831115203 49 239 1.0 2.0 0.00 0.00 0.00 96 1015.7
20260831114704 50 211 1.0 1.0 0.00 0.00 0.00 95 1015.8
20260831113704 51 211 0.0 0.0 0.00 0.00 0.00 96 1015.8
20260831113204 50 211 0.0 0.0 0.00 0.00 0.00 96 1015.8
20260831112705 50 211 0.0 0.0 0.00 0.00 0.00 96 1015.8
20260831112204 50 211 0.0 0.0 0.00 0.00 0.00 95 1015.9
20260831111204 51 211 1.0 2.0 0.00 0.00 0.00 96 1016.0
20260831110704 51 211 0.0 1.0 0.00 0.00 0.00 96 1016.1
20260831105705 51 211 0.0 0.0 0.00 0.00 0.00 95 1016.2
20260831105204 51 211 0.0 1.0 0.00 0.00 0.00 96 1016.2
20260831104706 51 211 0.0 1.0 0.00 0.00 0.00 95 1016.2
20260831104204 51 211 0.0 0.0 0.00 0.00 0.00 95 1016.2
20260831103704 52 211 0.0 0.0 0.00 0.00 0.00 96 1016.2
20260831103205 51 211 0.0 0.0 0.00 0.00 0.00 95 1016.2
20260831102704 52 211 0.0 0.0 0.00 0.00 0.00 95 1016.2
20260831102203 52 211 0.0 0.0 0.00 0.00 0.00 95 1016.2
20260831101704 52 211 0.0 1.0 0.00 0.00 0.00 95 1016.2
20260831101205 52 211 0.0 1.0 0.00 0.00 0.00 95 1016.3
20260831100704 52 211 1.0 1.0 0.00 0.00 0.00 95 1016.3
20260831100205 52 211 0.0 1.0 0.00 0.00 0.00 95 1016.4
20260831095705 52 211 1.0 1.0 0.00 0.00 0.00 95 1016.4
20260831095204 52 211 0.0 0.0 0.00 0.00 0.00 95 1016.5
20260831094705 52 211 0.0 0.0 0.00 0.00 0.00 95 1016.6
20260831094204 52 180 0.0 0.0 0.00 0.00 0.00 95 1016.6
20260831093705 52 180 0.0 1.0 0.00 0.00 0.00 95 1016.7
20260831093205 52 180 0.0 0.0 0.00 0.00 0.00 95 1016.6
20260831092704 52 180 0.0 1.0 0.00 0.00 0.00 95 1016.6
20260831092203 53 180 0.0 1.0 0.00 0.00 0.00 95 1016.7
20260831091704 52 180 0.0 2.0 0.00 0.00 0.00 94 1016.7
20260831091204 52 217 1.0 2.0 0.00 0.00 0.00 94 1016.8
20260831090205 53 225 1.0 2.0 0.00 0.00 0.00 95 1016.9
20260831085704 53 225 2.0 3.0 0.00 0.00 0.00 94 1016.9
20260831085204 52 219 2.0 3.0 0.00 0.00 0.00 94 1016.9
20260831084705 53 232 0.0 1.0 0.00 0.00 0.00 94 1016.9
20260831084204 53 232 0.0 1.0 0.00 0.00 0.00 94 1016.9
20260831083704 53 232 0.0 1.0 0.00 0.00 0.00 93 1017.0
20260831083205 53 230 0.0 1.0 0.00 0.00 0.00 94 1017.1
20260831082704 53 213 1.0 1.0 0.00 0.00 0.00 93 1017.2
20260831082205 54 213 0.0 1.0 0.00 0.00 0.00 93 1017.2
20260831081704 54 213 1.0 1.0 0.00 0.00 0.00 94 1017.2
20260831081203 54 213 1.0 2.0 0.00 0.00 0.00 93 1017.3
20260831080704 54 213 1.0 2.0 0.00 0.00 0.00 93 1017.3
20260831080205 55 213 2.0 3.0 0.00 0.00 0.00 94 1017.4
20260831075204 55 213 1.0 2.0 0.00 0.00 0.00 94 1017.3
20260831074204 55 213 2.0 3.0 0.00 0.00 0.00 95 1017.4
20260831073705 55 216 2.0 3.0 0.00 0.00 0.00 95 1017.4
20260831073205 55 229 2.0 3.0 0.00 0.00 0.00 95 1017.4
20260831072203 54 228 2.0 3.0 0.00 0.00 0.00 95 1017.5
20260831071706 53 215 0.0 0.0 0.00 0.00 0.00 94 1017.7
20260831071204 53 215 0.0 0.0 0.00 0.00 0.00 94 1017.6
20260831070705 53 215 0.0 0.0 0.00 0.00 0.00 93 1017.8
20260831070205 53 215 0.0 0.0 0.00 0.00 0.00 93 1017.8
20260831065704 54 215 0.0 0.0 0.00 0.00 0.00 93 1017.8
20260831064705 54 215 0.0 0.0 0.00 0.00 0.00 93 1017.9
20260831063705 54 215 0.0 0.0 0.00 0.00 0.00 93 1018.0
20260831062205 54 215 0.0 0.0 0.00 0.00 0.00 92 1018.1
20260831061705 54 215 0.0 0.0 0.00 0.00 0.00 91 1018.1
20260831061204 54 215 0.0 0.0 0.00 0.00 0.00 91 1018.0
20260831060703 54 258 0.0 0.0 0.00 0.00 0.00 90 1018.0
20260831060204 55 258 0.0 2.0 0.00 0.00 0.00 90 1018.0
20260831055704 55 258 1.0 2.0 0.00 0.00 0.00 90 1018.0
20260831055205 56 258 1.0 2.0 0.00 0.00 0.00 90 1018.1
20260831054705 56 258 1.0 2.0 0.00 0.00 0.00 90 1018.1
20260831053704 57 258 1.0 2.0 0.00 0.00 0.00 89 1018.2
20260831053204 58 258 1.0 1.0 0.00 0.00 0.00 89 1018.2
20260831052204 58 258 0.0 1.0 0.00 0.00 0.00 89 1018.3
20260831051706 58 258 1.0 2.0 0.00 0.00 0.00 89 1018.3
20260831051204 59 258 1.0 2.0 0.00 0.00 0.00 89 1018.4
20260831050205 59 258 2.0 3.0 0.00 0.00 0.00 88 1018.5
20260831045204 60 258 1.0 3.0 0.00 0.00 0.00 87 1018.6
20260831044705 60 258 2.0 3.0 0.00 0.00 0.00 87 1018.5
20260831044204 60 270 2.0 3.0 0.00 0.00 0.00 87 1018.5
20260831043705 60 260 2.0 3.0 0.00 0.00 0.00 86 1018.5
20260831043206 60 275 2.0 3.0 0.00 0.00 0.00 86 1018.6
20260831042704 60 272 2.0 3.0 0.00 0.00 0.00 86 1018.6
20260831042204 61 262 3.0 6.0 0.00 0.00 0.00 86 1018.7
20260831040705 61 267 2.0 6.0 0.00 0.00 0.00 86 1018.7
20260831040204 61 285 1.0 3.0 0.00 0.00 0.00 85 1018.7
20260831035204 61 282 2.0 3.0 0.00 0.00 0.00 85 1018.6
20260831034705 61 256 2.0 6.0 0.00 0.00 0.00 85 1018.6